Simultaneous Nadir Overpasses (SNOs) Predictions

Prediction of SNOs between FY3D and METOP-C Satellite Orbit:

Table of predicted SNOs for the next 14.0 days since TLE Epoch: 9/14/2019
Index Date (FY3D) Time (FY3D) Lat,Lon (FY3D) SZA (FY3D ) Date (METOP-C) Time (METOP-C) Lat,Lon (METOP-C) SZA (METOP-C ) Distance(km) Time Diff (sec)
1 09/21/2019 16:09:56 73.59, -71.42 73.00 09/21/2019 16:11:04 73.54, -69.07 72.87 74.36 68
2 09/21/2019 17:00:39 -73.58, 95.93 107.01 09/21/2019 17:01:47 -73.52, 98.22 107.14 72.41 68
3 09/21/2019 17:51:19 73.33, -96.21 72.75 09/21/2019 17:52:30 73.27, -95.02 72.64 38.73 71
4 09/21/2019 18:42:02 -73.32, 71.14 107.26 09/21/2019 18:43:13 -73.25, 72.27 107.37 37.00 71
5 09/21/2019 19:32:43 73.08,-121.01 72.50 09/21/2019 19:33:56 73.04,-120.84 72.45 6.41 73
6 09/21/2019 20:23:26 -73.06, 46.33 107.50 09/21/2019 20:24:39 -73.03, 46.45 107.55 5.20 73
7 09/21/2019 21:14:11 73.02,-146.26 72.47 09/21/2019 21:15:18 73.02,-146.23 72.46 1.07 67
8 09/21/2019 22:04:54 -73.01, 21.09 107.54 09/21/2019 22:06:01 -73.01, 21.07 107.54 0.83 67
9 09/21/2019 22:55:40 73.01,-171.61 72.49 09/21/2019 22:56:40 73.00,-171.61 72.47 1.02 60
10 09/21/2019 23:46:23 -73.00, -4.27 107.52 09/21/2019 23:47:23 -72.99, -4.32 107.53 2.00 60
11 09/22/2019 00:37:09 73.00, 163.03 72.51 09/22/2019 00:38:02 72.98, 163.00 72.48 2.80 53
12 09/22/2019 01:27:52 -72.99, -29.62 107.50 09/22/2019 01:28:44 -73.02, -29.60 107.48 3.06 52
13 09/22/2019 02:18:38 73.00, 137.67 72.53 09/22/2019 02:19:23 73.01, 137.72 72.53 2.12 45
14 09/22/2019 03:09:21 -72.98, -54.98 107.48 09/22/2019 03:10:06 -73.00, -54.98 107.47 1.36 45
15 09/22/2019 04:00:07 72.99, 112.32 72.54 09/22/2019 04:00:45 72.99, 112.34 72.54 0.63 38
16 09/22/2019 04:50:50 -72.98, -80.34 107.46 09/22/2019 04:51:28 -72.98, -80.37 107.47 1.00 38
17 09/22/2019 05:41:36 72.98, 86.96 72.56 09/22/2019 05:42:07 72.97, 86.95 72.54 1.79 31
18 09/22/2019 06:32:19 -72.97,-105.69 107.44 09/22/2019 06:32:50 -72.95,-105.75 107.46 2.60 31
19 09/22/2019 07:23:05 72.97, 61.61 72.58 09/22/2019 07:23:28 73.00, 61.67 72.60 3.19 23
20 09/22/2019 08:13:48 -72.96,-131.05 107.42 09/22/2019 08:14:11 -72.98,-131.03 107.40 2.39 23
21 09/22/2019 09:04:34 72.97, 36.25 72.60 09/22/2019 09:04:50 72.97, 36.29 72.61 1.45 16
22 09/22/2019 09:55:17 -72.96,-156.41 107.40 09/22/2019 09:55:33 -72.96,-156.41 107.40 0.81 16
23 09/22/2019 10:46:03 72.96, 10.89 72.62 09/22/2019 10:46:12 72.95, 10.90 72.61 0.95 9
24 09/22/2019 11:36:46 -72.95, 178.24 107.38 09/22/2019 11:36:55 -72.94, 178.20 107.39 1.49 9
25 09/22/2019 12:27:32 72.95, -14.46 72.64 09/22/2019 12:27:34 72.93, -14.48 72.62 2.56 2
26 09/22/2019 13:18:15 -72.94, 152.88 107.36 09/22/2019 13:18:17 -72.92, 152.82 107.38 3.22 2
27 09/22/2019 14:09:01 72.95, -39.82 72.66 09/22/2019 14:08:55 72.96, -39.76 72.68 2.48 6
28 09/22/2019 14:59:44 -72.93, 127.53 107.34 09/22/2019 14:59:38 -72.95, 127.54 107.33 1.72 6
29 09/22/2019 15:50:30 72.94, -65.18 72.68 09/22/2019 15:50:17 72.94, -65.15 72.68 0.99 13
30 09/22/2019 16:41:13 -72.93, 102.17 107.32 09/22/2019 16:41:00 -72.93, 102.15 107.32 0.57 13
31 09/22/2019 17:31:59 72.93, -90.53 72.70 09/22/2019 17:31:39 72.92, -90.53 72.69 1.63 20
32 09/22/2019 18:22:42 -72.92, 76.81 107.30 09/22/2019 18:22:22 -72.91, 76.77 107.31 2.07 20
33 09/22/2019 19:13:28 72.93,-115.89 72.72 09/22/2019 19:13:01 72.90,-115.92 72.70 3.34 27
34 09/22/2019 20:04:11 -72.91, 51.46 107.28 09/22/2019 20:03:43 -72.94, 51.49 107.26 2.83 28
35 09/22/2019 20:54:57 72.92,-141.24 72.74 09/22/2019 20:54:22 72.93,-141.19 72.75 1.86 35
36 09/22/2019 21:45:40 -72.91, 26.10 107.26 09/22/2019 21:45:05 -72.91, 26.11 107.25 1.07 35
37 09/22/2019 22:36:26 72.91,-166.60 72.76 09/22/2019 22:35:44 72.90,-166.58 72.76 1.06 42
38 09/22/2019 23:27:09 -72.90, 0.75 107.24 09/22/2019 23:26:27 -72.89, 0.72 107.24 0.94 42
39 09/23/2019 00:17:55 72.90, 168.04 72.78 09/23/2019 00:17:06 72.88, 168.04 72.77 2.37 49
40 09/23/2019 01:08:38 -72.89, -24.61 107.22 09/23/2019 01:07:49 -72.87, -24.66 107.24 2.69 49
41 09/23/2019 01:59:24 72.90, 142.69 72.80 09/23/2019 01:58:27 72.91, 142.76 72.82 2.89 57
42 09/23/2019 02:50:07 -72.88, -49.97 107.21 09/23/2019 02:49:10 -72.90, -49.94 107.18 2.16 57
43 09/23/2019 03:40:53 72.89, 117.33 72.82 09/23/2019 03:39:49 72.89, 117.37 72.83 1.42 64
44 09/23/2019 04:31:36 -72.88, -75.32 107.19 09/23/2019 04:30:32 -72.88, -75.33 107.17 0.44 64
45 09/23/2019 05:22:22 72.88, 91.97 72.84 09/23/2019 05:21:11 72.87, 91.99 72.83 1.58 71
46 09/23/2019 06:13:05 -72.87,-100.68 107.17 09/23/2019 06:11:54 -72.86,-100.71 107.17 1.52 71
47 09/23/2019 07:03:48 72.72, 66.93 72.70 09/23/2019 07:02:35 72.75, 66.39 72.75 18.08 73
48 09/23/2019 07:54:32 -72.76,-125.82 107.25 09/23/2019 07:53:18 -72.74,-126.30 107.25 16.07 74
49 09/23/2019 08:45:12 72.46, 42.10 72.45 09/23/2019 08:44:02 72.47, 40.49 72.52 53.76 70
50 09/23/2019 09:35:55 -72.45,-150.56 107.55 09/23/2019 09:34:45 -72.46,-152.20 107.48 55.02 70
51 09/23/2019 10:26:36 72.20, 17.24 72.20 09/23/2019 10:25:29 72.19, 14.61 72.29 89.62 67
52 09/23/2019 11:17:19 -72.19,-175.42 107.80 09/23/2019 11:16:12 -72.18,-178.08 107.71 90.71 67




NCC Satellite Simultaneous Nadir Overpasses (SNOs) Prediction Service
